Regional Weather Roundup
Issued by NWS Newport/Morehead, NC

Current Version | Previous Version | Graphics & Text | Print | Product List | Glossary On
Versions: 1 2 3 4 5 6 7 8 9 10 11 12 13 14 15 16 17 18 19 20 21 22 23 24 25 26 27 28 29 30 31 32 33 34 35 36 37 38 39 40 41 42 43 44 45 46 47 48 49 50
000 ASUS42 KMHX 280913 RWRMHX WEATHER ROUNDUP FOR EASTERN NORTH CAROLINA NATIONAL WEATHER SERVICE NEWPORT/MOREHEAD CITY NC 500 AM EDT THU MAY 28 2015 NOTE: "FAIR" INDICATES FEW OR NO CLOUDS BELOW 12,000 FEET WITH NO SIGNIFICANT WEATHER AND/OR OBSTRUCTIONS TO VISIBILITY NCZ015>017-031-032-045>047-102-103-281000- NORTH COAST CITY SKY/WX TMP DP RH WIND PRES REMARKS EDENTON PTCLDY 69 65 86 S8 30.21F ELIZABETH CITY CLOUDY 71 65 81 S7 30.21S KITTY HAWK CLOUDY 71 64 77 S3 30.22S MANTEO CLOUDY 72 64 78 SW10 30.24R $$ NCZ045>047-081-094-103-104-281000- CENTRAL COAST CITY SKY/WX TMP DP RH WIND PRES REMARKS FRISCO CLEAR 71 60 68 S8 30.23S SWANQUARTER N/A 73 N/A N/A S7 30.21R $$ NCZ095-097-098-100-101-281000- SOUTHERN COAST CITY SKY/WX TMP DP RH WIND PRES REMARKS BEAUFORT PTCLDY 64 62 93 CALM 30.23R CEDAR ISLAND N/A 68 N/A N/A SE5 30.27S JACKSONVILLE CLEAR 66 64 93 S3 30.21S PINEY ISLAND MIX PCPN N/A N/A N/A S3 30.23R WILMINGTON CLEAR 65 63 93 CALM 30.21R $$ NCZ011>013-027>030-043-044-078>080-089-090>093-098-281000- COASTAL PLAIN CITY SKY/WX TMP DP RH WIND PRES REMARKS AHOSKIE MOCLDY 67 65 95 S3 30.19S CLINTON MOCLDY 68 68 99 CALM 30.20S ELIZABETHTOWN PTCLDY 68 68 100 CALM 30.20S GOLDSBORO PTCLDY 68 66 93 CALM 30.18S GREENVILLE PTCLDY 70 66 88 S6 30.21S HAVELOCK CLOUDY 64 61 90 CALM 30.23S KENANSVILLE PTCLDY 66 65 96 CALM 30.21S KINSTON PTCLDY 69 66 89 S3 30.21S NEW BERN MOCLDY 67 63 87 S3 30.23S RICHLANDS PTCLDY 63 59 88 CALM 30.21S ROCKY MOUNT CLEAR 68 67 96 S3 30.19F FOG WASHINGTON PTCLDY 68 65 89 S3 30.22R WHITEVILLE PTCLDY 66 65 94 CALM 30.20R $$ AMZ130-135-150-152-154-156-158-170-250-252-270-ANZ085-086-088-633-658-670-281000- MARINE OBSERVATIONS STATION/POSITION TIME TEMP WIND PRES WAVE SWELL AIR SEA DIR/SP/G HT/PER HT/PER (UTC) (F) (DEG/KT/KT) (MB) (FT/S) (FT/S) CHESAPEAKE LIGHT 0800 65 200/ 17/ 17 1023.1 64 E VA BEACH 0850 65 64 170/ 6/ 8 1023.2 3/ 8 3/ 8 DUCK 0800 72 54 200/ 8/ 12 1022.3 2 E DUCK 0811 58 N/A 2/ 7 OREGON INLET 0800 72 76 180/ 8/ 12 1023.5 13E OREGON INLT 0900 69 N/A 3/ 7 HATTERAS CG 0800 72 75 180/ 4/ 7 1023.1 DIAMOND BUOY 0850 73 77 190/ 8/ 10 1023.8 3/ 8 3/ 8 CAPE LOOKOUT 0900 73 160/ 5/ 7 1023.3 BEAUFORT LAB 0800 73 75 190/ 5/ 6 1022.4 27 SE WRIGHTSVLE 0800 76 220/ 4/ 6 N/A 5 SE WRIGHTSVLE 0808 74 76 170/ 6/ 8 1022.8 225 S CAPE HAT 0850 73 74 80/ 10/ 12 1022.9 5/ 8 5/ 8 41 SE CHARLESTON 0850 76 78 90/ 6/ 8 1021.5 3/ 7 3/ 7 $$

USA.gov is the U.S. government's official web portal to all federal, state and local government web resources and services.